This demonstration page uses our WeatherBlox Daily Observations layout. Learn more.

Hourly Observations for January 29, 2016

Temp ( °F °C ) Dew Point ( °F °C ) Humidity (%) Winds ( mph kmh ) Pressure ( in mb ) Visibility ( mi km ) Precip ( " mm )
12:15 am 00:15 Clear 38 3.5 31 -0.5 75 75 SSW 7 11 29.88 1012 10 16.0934 0 0
12:35 am 00:35 Clear 38 3.1 31 -0.7 76 76 SSW 7 11 29.88 1012 10 16.0934 0 0
12:55 am 00:55 Clear 38 3.3 31 -0.5 76 76 SSW 7 11 29.85 1011 10 16.0934 0 0
1:15 am 01:15 Clear 38 3.3 31 -0.7 75 75 SSW 9 15 29.85 1011 10 16.0934 0 0
1:35 am 01:35 Clear 38 3.3 30 -1 74 74 SSW 9 15 29.85 1011 10 16.0934 0 0
1:55 am 01:55 Clear 37 3 30 -1.2 74 74 SSW 8 13 29.85 1011 10 16.0934 0 0
2:15 am 02:15 Clear 37 3 29 -1.4 73 73 SSW 8 13 29.85 1011 10 16.0934 0 0
2:35 am 02:35 Clear 37 3 29 -1.5 73 73 S 8 13 29.85 1011 10 16.0934 0 0
2:55 am 02:55 Clear 37 3 29 -1.6 72 72 SSW 10 17 29.85 1011 10 16.0934 0 0
3:15 am 03:15 Clear 38 3.2 29 -1.7 71 71 SSW 10 17 29.85 1011 10 16.0934 0 0
3:35 am 03:35 Clear 38 3.2 28 -2 69 69 SW 9 15 29.83 1010 10 16.0934 0 0
3:55 am 03:55 Clear 37 2.5 28 -2.2 71 71 SW 8 13 29.83 1010 10 16.0934 0 0
4:15 am 04:15 Clear 37 2.9 27 -2.6 67 67 SW 8 13 29.83 1010 10 16.0934 0 0
4:35 am 04:35 Clear 36 2.3 27 -3 68 68 SW 8 13 29.83 1010 10 16.0934 0 0
4:55 am 04:55 Clear 36 2.2 27 -3 69 69 SW 9 15 29.8 1009 10 16.0934 0 0
5:15 am 05:15 Clear 36 2 26 -3.1 69 69 SSW 7 11 29.8 1009 10 16.0934 0 0
5:35 am 05:35 Clear 35 1.9 26 -3.5 68 68 SW 8 13 29.8 1009 10 16.0934 0 0
5:55 am 05:55 Clear 36 2.2 26 -3.6 66 66 SW 8 13 29.8 1009 10 16.0934 0 0
6:15 am 06:15 Clear 35 1.6 25 -4 67 67 SSW 6 9 29.77 1008 10 16.0934 0 0
6:35 am 06:35 Clear 34 1 25 -4 70 70 SW 5 7 29.8 1009 10 16.0934 0 0
6:55 am 06:55 Clear 33 0.6 24 -4.5 69 69 Calm 29.8 1009 10 16.0934 0 0
7:15 am 07:15 Clear 33 0.8 24 -4.2 70 70 SSW 5 7 29.8 1009 10 16.0934 0 0
7:35 am 07:35 Clear 32 0 24 -4.2 74 74 SSW 3 6 29.77 1008 10 16.0934 0 0
7:55 am 07:55 Sunny 32 0 24 -4.4 73 73 SW 6 9 29.83 1010 10 16.0934 0 0
8:15 am 08:15 Sunny 32 0 25 -4.1 74 74 SW 6 9 29.83 1010 10 16.0934 0 0
8:35 am 08:35 Sunny 34 1.1 25 -3.8 70 70 SW 5 7 29.77 1008 10 16.0934 0 0
8:55 am 08:55 Sunny 36 2.4 26 -3.5 65 65 SW 5 7 29.77 1008 10 16.0934 0 0
9:15 am 09:15 Sunny 40 4.6 26 -3.1 58 58 WSW 5 7 29.74 1007 10 16.0934 0 0
9:35 am 09:35 Sunny 43 6.3 26 -3.4 50 50 WSW 6 9 29.74 1007 10 16.0934 0 0
9:55 am 09:55 Sunny 44 6.6 27 -2.9 51 51 W 8 13 29.71 1006 10 16.0934 0 0
10:15 am 10:15 Sunny 46 7.7 28 -2.3 50 50 W 10 17 29.71 1006 10 16.0934 0 0
10:35 am 10:35 Sunny 48 8.8 29 -1.6 48 48 W 9 15 29.71 1006 10 16.0934 0 0
10:55 am 10:55 Sunny 51 10.4 31 -0.7 46 46 W 10 17 29.68 1005 10 16.0934 0 0
11:15 am 11:15 Sunny 51 10.8 32 -0.2 47 47 W 10 17 29.68 1005 10 16.0934 0 0
11:35 am 11:35 Sunny 56 13.6 30 -1.1 37 37 WNW 21 33 29.65 1004 10 16.0934 0 0
11:55 am 11:55 Sunny 58 14.3 31 -0.7 36 36 WNW 17 28 29.65 1004 10 16.0934 0 0
12:15 pm 12:15 Sunny 58 14.4 30 -0.9 35 35 NW 26 43 29.65 1004 10 16.0934 0 0
12:35 pm 12:35 Sunny 57 13.7 31 -0.7 37 37 NW 18 30 29.65 1004 10 16.0934 0 0
12:55 pm 12:55 Sunny 57 14 31 -0.7 37 37 NW 23 37 29.62 1003 10 16.0934 0 0
1:15 pm 13:15 Sunny 57 14 32 -0.2 38 38 NNW 16 26 29.62 1003 10 16.0934 0 0
1:35 pm 13:35 Sunny 57 13.8 32 -0.1 39 39 NNW 21 33 29.62 1003 10 16.0934 0 0
1:55 pm 13:55 Sunny 57 13.7 32 0 39 39 NNW 18 30 29.62 1003 10 16.0934 0 0
2:15 pm 14:15 Sunny 55 13 33 0.3 42 42 N 18 30 29.62 1003 10 16.0934 0 0
2:35 pm 14:35 Sunny 55 13 34 1.3 45 45 N 24 39 29.62 1003 10 16.0934 0 0
2:55 pm 14:55 Sunny 54 12.3 35 1.5 48 48 N 18 30 29.68 1005 10 16.0934 0 0
3:15 pm 15:15 Sunny 55 12.7 35 1.9 48 48 N 21 33 29.62 1003 10 16.0934 0 0
3:35 pm 15:35 Sunny 54 12.4 35 1.9 49 49 N 21 33 29.68 1005 10 16.0934 0 0
3:55 pm 15:55 Sunny 55 12.5 36 2.2 50 50 N 15 24 29.65 1004 10 16.0934 0 0
4:15 pm 16:15 Sunny 54 12.2 35 1.9 50 50 N 18 30 29.71 1006 10 16.0934 0 0
4:35 pm 16:35 Sunny 52 11.2 36 2.1 54 54 N 13 20 29.74 1007 10 16.0934 0 0
4:55 pm 16:55 Sunny 51 10.8 36 2 55 55 N 9 15 29.71 1006 10 16.0934 0 0
5:15 pm 17:15 Sunny 51 10.3 35 1.9 56 56 N 7 11 29.77 1008 10 16.0934 0 0
5:35 pm 17:35 Sunny 49 9.4 35 1.5 58 58 NNW 3 6 29.77 1008 10 16.0934 0 0
5:55 pm 17:55 Clear 46 7.7 35 1.4 65 65 NW 5 7 29.77 1008 10 16.0934 0 0
6:15 pm 18:15 Clear 43 6.3 33 0.7 68 68 NW 3 6 29.83 1010 10 16.0934 0 0
6:35 pm 18:35 Clear 40 4.5 32 -0.1 72 72 Calm 29.83 1010 10 16.0934 0 0
6:55 pm 18:55 Clear 39 4 32 0 75 75 Calm 29.83 1010 10 16.0934 0 0
7:15 pm 19:15 Clear 39 3.7 32 0.1 78 78 Calm 29.83 1010 10 16.0934 0 0
7:35 pm 19:35 Clear 38 3.6 33 0.4 80 80 Calm 29.8 1009 10 16.0934 0 0
7:55 pm 19:55 Clear 37 3 32 0 81 81 Calm 29.83 1010 10 16.0934 0 0
8:15 pm 20:15 Clear 37 2.7 33 0.5 86 86 Calm 29.83 1010 10 16.0934 0 0
8:35 pm 20:35 Clear 34 1 30 -1 87 87 NW 3 6 29.85 1011 10 16.0934 0 0
8:55 pm 20:55 Clear 34 1.2 31 -0.7 87 87 WNW 6 9 29.85 1011 10 16.0934 0 0
9:15 pm 21:15 Clear 33 0.3 30 -1.2 90 90 Calm 29.88 1012 10 16.0934 0 0
9:35 pm 21:35 Clear 32 -0.1 28 -2 87 87 WNW 3 6 29.88 1012 10 16.0934 0 0
9:55 pm 21:55 Clear 32 0 30 -1.3 91 91 Calm 29.88 1012 10 16.0934 0 0
10:15 pm 22:15 Clear 33 0.6 30 -0.9 90 90 Calm 29.85 1011 10 16.0934 0 0
10:35 pm 22:35 Clear 30 -0.9 28 -2.5 89 89 W 5 7 29.88 1012 10 16.0934 0 0
10:55 pm 22:55 Clear 34 1.3 31 -0.5 88 88 Calm 29.83 1010 10 16.0934 0 0
11:15 pm 23:15 Clear 33 0.8 30 -1.3 86 86 SSW 3 6 29.8 1009 10 16.0934 0 0
11:35 pm 23:35 Clear 34 1.1 30 -0.9 87 87 Calm 29.83 1010 10 16.0934 0 0
11:55 pm 23:55 Clear 33 0.7 30 -1.2 87 87 Calm 29.8 1009 10 16.0934 0 0

Powered by AerisWeather